Hof, Germany

4:40 PM CEST on August 29, 2016 (GMT +0200)
Hof-Plauen

Weather History for EDQM - September, 2013

Change the Weather History Date:

Friday, September 20, 2013

  Actual Average Record
Temperature  
Mean Temperature 50 °F -  
Max Temperature 53 °F 59 °F 80 °F (2003)
Min Temperature 46 °F 44 °F 33 °F (1997)
Degree Days  
Heating Degree Days 16    
Moisture  
Dew Point 46 °F    
Average Humidity 87    
Maximum Humidity 95    
Minimum Humidity 75    
Precipitation  
Precipitation 0.04 in - - ()
Sea Level Pressure  
Sea Level Pressure 29.98 in    
Wind  
Wind Speed 8 mph ()    
Max Wind Speed 16 mph    
Max Gust Speed 96 mph    
Visibility 6.4 miles    
Events Rain    
Averages and records for this station are not official NWS values.
T = Trace of Precipitation, MM = Missing Value Source: Averaged Metar Reports

Daily Weather History Graph

Daily Weather History Graph

Search for Another Location

Airport or City:

Trip Planner

Search our weather history database for the weather conditions in past years. The results will help you decide how hot, cold, wet, or windy it might be!

Date:

Astronomy

Sep. 20, 2013 Rise Set
Actual Time 6:55 AM CEST 7:15 PM CEST
Civil Twilight 6:23 AM CEST 7:47 PM CEST
Nautical Twilight 5:44 AM CEST 8:25 PM CEST
Astronomical Twilight 5:04 AM CEST 9:06 PM CEST
Moon 7:25 PM CEST (9/20) 8:02 AM CEST (9/20)
Length of Visible Light 13h 24m
Length of Day
12h 19m
Full, 99% of the Moon is Illuminated
Sep 20
Full
Sep 27
Last Quarter
Oct 5
New
Oct 12
First Quarter
Oct 19
Full

Hourly Weather History & Observations

Time (CEST) Temp. Windchill Dew Point Humidity Pressure Visibility Wind Dir Wind Speed Gust Speed Precip Events Conditions
12:00 AM 47 °F - 43 °F 82% 29.96 in 13 mi SSW 4.5 mph - -   Overcast
12:20 AM 46.4 °F 43.5 °F 41.0 °F 81% 29.95 in 6.2 mi SSW 5.8 mph - N/A   Overcast
12:50 AM 46.4 °F 43.5 °F 42.8 °F 87% 29.95 in 6.2 mi SSW 5.8 mph - N/A   Overcast
1:00 AM 47 °F - 43 °F 82% 29.94 in 14 mi SW 4.5 mph - -   Overcast
1:20 AM 46.4 °F 44.3 °F 42.8 °F 87% 29.95 in 6.2 mi South 4.6 mph - N/A   Overcast
1:50 AM 46.4 °F 43.5 °F 42.8 °F 87% 29.95 in 6.2 mi SSW 5.8 mph - N/A   Overcast
2:00 AM 47 °F - 44 °F 84% 29.94 in 11 mi WSW 6.7 mph - -   Overcast
2:20 AM 46.4 °F 42.4 °F 42.8 °F 87% 29.92 in 6.2 mi SSW 8.1 mph - N/A   Mostly Cloudy
2:50 AM 46.4 °F 42.4 °F 42.8 °F 87% 29.92 in 6.2 mi SSW 8.1 mph - N/A   Overcast
3:00 AM 46 °F - 44 °F 89% 29.93 in 8 mi SW 4.5 mph - - Rain Rain
3:20 AM 46.4 °F 42.4 °F 42.8 °F 87% 29.92 in 6.2 mi SSW 8.1 mph - N/A   Overcast
3:50 AM 46.4 °F 42.9 °F 42.8 °F 87% 29.92 in 6.2 mi South 6.9 mph - N/A   Mostly Cloudy
4:00 AM 46 °F - 44 °F 91% 29.91 in 6 mi South 6.7 mph - -   Overcast
4:20 AM 46.4 °F 42.4 °F 42.8 °F 87% 29.92 in 6.2 mi SSW 8.1 mph - N/A   Mostly Cloudy
4:50 AM 46.4 °F 42.4 °F 42.8 °F 87% 29.92 in 4.3 mi SW 8.1 mph - N/A Rain Light Rain
5:20 AM 46.4 °F 41.9 °F 42.8 °F 87% 29.92 in 6.2 mi SW 9.2 mph - N/A   Mostly Cloudy
5:50 AM 46.4 °F 41.9 °F 42.8 °F 87% 29.89 in - SSW 9.2 mph - N/A   Drizzle
6:20 AM 46.4 °F 41.5 °F 44.6 °F 93% 29.89 in 4.3 mi SW 10.4 mph - N/A Rain Light Rain
6:50 AM 46.4 °F 41.5 °F 44.6 °F 93% 29.89 in 6.2 mi SW 10.4 mph - N/A Rain Light Rain
7:20 AM 46.4 °F 40.4 °F 44.6 °F 93% 29.89 in 2.2 mi SSW 13.8 mph - N/A Rain Light Rain
7:50 AM 46.4 °F 41.5 °F 44.6 °F 93% 29.92 in - SW 10.4 mph - N/A   Light Drizzle
8:00 AM 47 °F - 46 °F 95% 29.90 in 10 mi WSW 8.9 mph - - Rain Light Rain
8:20 AM 48.2 °F - 44.6 °F 87% 29.92 in 2.5 mi SW 11.5 mph - N/A   Light Drizzle
8:50 AM 48.2 °F - 44.6 °F 87% 29.92 in 3.1 mi SW 11.5 mph - N/A Rain Light Rain
9:00 AM 48 °F - 46 °F 92% 29.91 in 7 mi WSW 8.9 mph - - Rain Light Rain
9:20 AM 48.2 °F - 44.6 °F 87% 29.92 in 3.7 mi SW 11.5 mph - N/A   Light Drizzle
9:50 AM 48.2 °F - 44.6 °F 87% 29.92 in 3.1 mi WSW 11.5 mph - N/A   Light Drizzle
10:00 AM 48 °F - 47 °F 93% 29.92 in 4 mi West 8.9 mph - - Rain Light Rain
10:20 AM 50.0 °F - 46.4 °F 87% 29.92 in 5.0 mi Variable 9.2 mph 95.5 mph N/A   Overcast
10:50 AM 50.0 °F - 46.4 °F 87% 29.95 in 6.2 mi WSW 11.5 mph - N/A   Light Drizzle
11:20 AM 50.0 °F - 46.4 °F 87% 29.95 in 6.2 mi WSW 11.5 mph - N/A Rain Light Rain
11:50 AM 51.8 °F - 48.2 °F 88% 29.95 in 6.2 mi WSW 11.5 mph - N/A   Mostly Cloudy
12:00 PM 52 °F - 49 °F 85% 29.92 in 16 mi WSW 11.2 mph - - Rain Light Rain
12:20 PM 51.8 °F - 48.2 °F 88% 29.95 in 6.2 mi WSW 11.5 mph - N/A   Mostly Cloudy
12:50 PM 51.8 °F - 46.4 °F 82% 29.95 in 6.2 mi West 12.7 mph - N/A   Mostly Cloudy
1:00 PM 52 °F - 48 °F 82% 29.95 in 44 mi West 15.7 mph - -   Mostly Cloudy
1:20 PM 51.8 °F - 46.4 °F 82% 29.98 in 6.2 mi West 13.8 mph - N/A   Mostly Cloudy
1:50 PM 53.6 °F - 46.4 °F 77% 29.98 in 6.2 mi WSW 13.8 mph - N/A   Mostly Cloudy
2:00 PM 53 °F - 47 °F 75% 29.95 in 44 mi West 11.2 mph - -   Partly Cloudy
2:20 PM 51.8 °F - 46.4 °F 82% 29.98 in 6.2 mi WSW 10.4 mph - N/A Rain Light Rain
2:50 PM 53.6 °F - 48.2 °F 82% 29.98 in 6.2 mi WSW 11.5 mph - N/A Rain Light Rain
3:00 PM 53 °F - 48 °F 79% 29.96 in 44 mi West 11.2 mph - - Rain Light Rain
3:20 PM 51.8 °F - 48.2 °F 88% 29.98 in 6.2 mi WSW 10.4 mph - N/A   Light Drizzle
3:50 PM 53.6 °F - 48.2 °F 82% 30.01 in 6.2 mi WSW 10.4 mph - N/A   Mostly Cloudy
4:20 PM 53.6 °F - 48.2 °F 82% 30.01 in 6.2 mi WSW 10.4 mph - N/A   Mostly Cloudy
4:50 PM 53.6 °F - 48.2 °F 82% 30.01 in 6.2 mi WSW 11.5 mph - N/A   Mostly Cloudy
5:20 PM 51.8 °F - 46.4 °F 82% 30.01 in 3.1 mi West 13.8 mph - N/A   Drizzle
5:50 PM 51.8 °F - 48.2 °F 88% 30.04 in 3.7 mi West 6.9 mph - N/A   Mostly Cloudy
6:00 PM 51 °F - 49 °F 92% 30.01 in 22 mi West 6.7 mph - - Rain Light Rain
6:20 PM 51.8 °F - 48.2 °F 88% 30.04 in 6.2 mi West 6.9 mph - N/A   Mostly Cloudy
6:50 PM 51.8 °F - 48.2 °F 88% 30.04 in - North - - N/A   Mostly Cloudy
7:00 PM 52 °F - 49 °F 87% 30.03 in 22 mi West 8.9 mph - -   Mostly Cloudy
7:20 PM 51.8 °F - 48.2 °F 88% 30.06 in 6.2 mi WSW 8.1 mph - N/A Rain Light Rain
7:50 PM 51.8 °F - 48.2 °F 88% 30.06 in 3.1 mi WSW 9.2 mph - N/A   Drizzle
8:00 PM 51 °F - 49 °F 91% 30.05 in 11 mi West 11.2 mph - - Rain Light Rain
8:20 PM 50.0 °F - 48.2 °F 94% 30.06 in 6.2 mi WSW 8.1 mph - N/A   Mostly Cloudy
8:50 PM 51.8 °F - 48.2 °F 88% 30.09 in 6.2 mi WSW 8.1 mph - N/A   Overcast
9:00 PM 51 °F - 49 °F 91% 30.08 in 9 mi West 8.9 mph - - Rain Light Drizzle
9:20 PM 50.0 °F - 48.2 °F 94% 30.09 in 6.2 mi WSW 6.9 mph - N/A   Mostly Cloudy
9:50 PM 50.0 °F - 48.2 °F 94% 30.09 in 6.2 mi WSW 8.1 mph - N/A   Mostly Cloudy
10:00 PM 51 °F - 49 °F 91% 30.09 in 8 mi West 6.7 mph - - Rain Light Drizzle
10:20 PM 50.0 °F - 48.2 °F 94% 30.09 in 6.2 mi WSW 9.2 mph - N/A   Mostly Cloudy
10:50 PM 50.0 °F - 48.2 °F 94% 30.12 in 5.6 mi WSW 9.2 mph - N/A   Mostly Cloudy
11:20 PM 50.0 °F - 46.4 °F 87% 30.12 in 5.0 mi West 8.1 mph - N/A   Scattered Clouds
11:50 PM 50.0 °F - 46.4 °F 87% 30.12 in 5.0 mi WSW 8.1 mph - N/A   Light Drizzle